London, United Kingdom

1:02 AM BST on July 26, 2017 (GMT +0100)
Heathrow

Weather History for EGLL - February, 2013

Change the Weather History Date:

Thursday, February 21, 2013

  Actual Average Record
Temperature  
Mean Temperature 34 °F -  
Max Temperature 36 °F 49 °F 58 °F (2016)
Min Temperature 33 °F 37 °F 32 °F (2003)
Degree Days  
Heating Degree Days 30    
Moisture  
Dew Point 22 °F    
Average Humidity 58    
Maximum Humidity 70    
Minimum Humidity 41    
Precipitation  
Precipitation 0.00 in - - ()
Sea Level Pressure  
Sea Level Pressure 30.23 in    
Wind  
Wind Speed 12 mph ()    
Max Wind Speed 16 mph    
Max Gust Speed 25 mph    
Visibility 6.9 miles    
Events      
Averages and records for this station are not official NWS values.
T = Trace of Precipitation, MM = Missing Value Source: Averaged Metar Reports

Daily Weather History Graph

Daily Weather History Graph

Search for Another Location

Airport or City:

Trip Planner

Search our weather history database for the weather conditions in past years. The results will help you decide how hot, cold, wet, or windy it might be!

Date:

Astronomy

Feb. 21, 2013 Rise Set
Actual Time 7:03 AM GMT 5:28 PM GMT
Civil Twilight 6:29 AM GMT 6:02 PM GMT
Nautical Twilight 5:50 AM GMT 6:40 PM GMT
Astronomical Twilight 5:12 AM GMT 7:19 PM GMT
Moon 1:09 PM GMT (2/21) 4:17 AM GMT (2/21)
Length of Visible Light 11h 32m
Length of Day
10h 24m
Waxing Gibbous, 82% of the Moon is Illuminated
Feb 21
Waxing Gibbous
Feb 25
Full
Mar 4
Last Quarter
Mar 11
New
Mar 19
First Quarter

Hourly Weather History & Observations

Time (GMT) Temp. Windchill Dew Point Humidity Pressure Visibility Wind Dir Wind Speed Gust Speed Precip Events Conditions
12:20 AM 35.6 °F 27.1 °F 26.6 °F 70% 30.24 in 6.2 mi East 12.7 mph - N/A   Mostly Cloudy
12:50 AM 35.6 °F 27.1 °F 26.6 °F 70% 30.24 in 6.2 mi East 12.7 mph - N/A   Mostly Cloudy
1:20 AM 35.6 °F 27.1 °F 24.8 °F 65% 30.27 in 6.2 mi East 12.7 mph - N/A   Mostly Cloudy
1:50 AM 33.8 °F 24.8 °F 24.8 °F 70% 30.27 in 6.2 mi ESE 12.7 mph - N/A   Overcast
2:20 AM 33.8 °F 24.8 °F 24.8 °F 70% 30.27 in 6.2 mi East 12.7 mph - N/A   Overcast
2:50 AM 33.8 °F 24.3 °F 23.0 °F 65% 30.27 in 6.2 mi East 13.8 mph - N/A   Mostly Cloudy
3:20 AM 33.8 °F 25.8 °F 23.0 °F 65% 30.24 in 6.2 mi East 10.4 mph - N/A   Mostly Cloudy
3:50 AM 33.8 °F 26.4 °F 23.0 °F 65% 30.24 in 6.2 mi East 9.2 mph - N/A   Mostly Cloudy
4:20 AM 33.8 °F 26.4 °F 23.0 °F 65% 30.24 in 6.2 mi East 9.2 mph - N/A   Mostly Cloudy
4:50 AM 33.8 °F 24.8 °F 23.0 °F 65% 30.24 in 6.2 mi East 12.7 mph - N/A   Mostly Cloudy
5:20 AM 33.8 °F 24.3 °F 23.0 °F 65% 30.24 in 6.2 mi East 13.8 mph - N/A   Mostly Cloudy
5:50 AM 34 °F - 23 °F 54% 30.25 in 12 mi East 11.5 mph - -  
5:50 AM 33.8 °F 24.8 °F 23.0 °F 65% 30.24 in 6.2 mi East 12.7 mph - N/A   Mostly Cloudy
6:20 AM 33.8 °F 25.3 °F 23.0 °F 65% 30.24 in 6.2 mi East 11.5 mph - N/A   Mostly Cloudy
6:50 AM 33.8 °F 24.3 °F 23.0 °F 65% 30.24 in 6.2 mi East 13.8 mph - N/A   Mostly Cloudy
7:20 AM 33.8 °F 23.9 °F 23.0 °F 65% 30.24 in 6.2 mi East 15.0 mph - N/A   Mostly Cloudy
7:50 AM 33.8 °F 23.9 °F 23.0 °F 65% 30.27 in 6.2 mi East 15.0 mph - N/A   Mostly Cloudy
8:20 AM 35.6 °F 26.6 °F 23.0 °F 60% 30.27 in 6.2 mi East 13.8 mph - N/A   Mostly Cloudy
8:50 AM 35 °F - 23 °F 50% 30.27 in 13 mi ENE 10.4 mph - -   Overcast
8:50 AM 35.6 °F 27.5 °F 23.0 °F 60% 30.27 in 6.2 mi ENE 11.5 mph - N/A   Mostly Cloudy
9:20 AM 35.6 °F 26.2 °F 23.0 °F 60% 30.27 in 6.2 mi East 15.0 mph - N/A   Mostly Cloudy
9:50 AM 35.6 °F 25.9 °F 21.2 °F 56% 30.27 in 6.2 mi East 16.1 mph - N/A   Mostly Cloudy
10:20 AM 35.6 °F 27.1 °F 21.2 °F 56% 30.27 in 6.2 mi East 12.7 mph - N/A   Mostly Cloudy
10:50 AM 35.6 °F 26.2 °F 23.0 °F 60% 30.27 in 6.2 mi East 15.0 mph - N/A   Mostly Cloudy
11:20 AM 35.6 °F 25.9 °F 23.0 °F 60% 30.27 in 6.2 mi East 16.1 mph - N/A   Mostly Cloudy
11:50 AM 35 °F - 23 °F 51% 30.27 in 16 mi East 15.0 mph - -   Overcast
11:50 AM 35.6 °F 25.9 °F 23.0 °F 60% 30.27 in 6.2 mi East 16.1 mph - N/A   Mostly Cloudy
12:20 PM 35.6 °F 26.2 °F 23.0 °F 60% 30.24 in 6.2 mi East 15.0 mph - N/A   Mostly Cloudy
12:50 PM 35.6 °F 26.6 °F 21.2 °F 56% 30.24 in 6.2 mi East 13.8 mph - N/A   Mostly Cloudy
1:20 PM 35.6 °F 26.2 °F 23.0 °F 60% 30.21 in 6.2 mi East 15.0 mph - N/A   Mostly Cloudy
1:50 PM 35.6 °F 26.6 °F 21.2 °F 56% 30.21 in 6.2 mi East 13.8 mph - N/A   Mostly Cloudy
2:20 PM 35.6 °F 27.1 °F 21.2 °F 56% 30.21 in 6.2 mi East 12.7 mph - N/A   Mostly Cloudy
2:50 PM 36 °F - 22 °F 43% 30.22 in 19 mi ENE 11.5 mph - -   Overcast
2:50 PM 35.6 °F 27.1 °F 21.2 °F 56% 30.21 in 6.2 mi East 12.7 mph - N/A   Mostly Cloudy
3:20 PM 35.6 °F 27.1 °F 19.4 °F 52% 30.21 in 6.2 mi East 12.7 mph - N/A   Mostly Cloudy
3:50 PM 35.6 °F 27.1 °F 19.4 °F 52% 30.21 in 6.2 mi East 12.7 mph - N/A   Mostly Cloudy
4:20 PM 33.8 °F 24.8 °F 19.4 °F 56% 30.21 in 6.2 mi ENE 12.7 mph - N/A   Mostly Cloudy
4:50 PM 33.8 °F 24.8 °F 19.4 °F 56% 30.21 in 6.2 mi ENE 12.7 mph - N/A   Mostly Cloudy
5:20 PM 33.8 °F 24.3 °F 21.2 °F 60% 30.21 in 6.2 mi East 13.8 mph - N/A   Mostly Cloudy
5:50 PM 35 °F - 21 °F 43% 30.22 in 22 mi ENE 12.7 mph - -   Overcast
5:50 PM 33.8 °F 25.3 °F 21.2 °F 60% 30.21 in 6.2 mi ENE 11.5 mph - N/A   Mostly Cloudy
6:20 PM 33.8 °F 25.3 °F 21.2 °F 60% 30.21 in 6.2 mi ENE 11.5 mph - N/A   Mostly Cloudy
6:50 PM 33.8 °F 24.3 °F 19.4 °F 56% 30.21 in 6.2 mi East 13.8 mph - N/A   Overcast
7:20 PM 33.8 °F 24.8 °F 19.4 °F 56% 30.21 in 6.2 mi ENE 12.7 mph - N/A   Mostly Cloudy
7:50 PM 33.8 °F 24.8 °F 19.4 °F 56% 30.21 in 6.2 mi ENE 12.7 mph - N/A   Mostly Cloudy
8:20 PM 33.8 °F 23.9 °F 19.4 °F 56% 30.18 in 6.2 mi ENE 15.0 mph - N/A   Mostly Cloudy
8:50 PM 33 °F - 20 °F 46% 30.20 in 25 mi ENE 10.4 mph - -   Overcast
8:50 PM 33.8 °F 25.3 °F 19.4 °F 56% 30.18 in 6.2 mi ENE 11.5 mph - N/A   Mostly Cloudy
9:20 PM 33.8 °F 25.3 °F 19.4 °F 56% 30.18 in 6.2 mi ENE 11.5 mph - N/A   Overcast
9:50 PM 33.8 °F 24.8 °F 19.4 °F 56% 30.18 in 6.2 mi ENE 12.7 mph - N/A   Overcast
10:20 PM 33.8 °F 25.3 °F 19.4 °F 56% 30.18 in 6.2 mi ENE 11.5 mph - N/A   Mostly Cloudy
10:50 PM 33.8 °F 24.8 °F 19.4 °F 56% 30.18 in 6.2 mi ENE 12.7 mph - N/A   Mostly Cloudy
11:20 PM 33.8 °F 24.8 °F 19.4 °F 56% 30.18 in 6.2 mi ENE 12.7 mph - N/A   Mostly Cloudy
11:50 PM 34 °F - 19 °F 41% 30.18 in 22 mi ENE 15.0 mph - -   Overcast
11:50 PM 33.8 °F 24.3 °F 19.4 °F 56% 30.18 in 6.2 mi ENE 13.8 mph 25.3 mph N/A   Mostly Cloudy